Wind_Speed
20 20 23 27 25 26 27 28 28 29 30 34 32 33 35 35 35 39 41 42 43 43 45 50 55 60 63 63 66 66 65 63 62 57 52 48 44 45 41 38 43 52 61 60
22 23 27 28 27 29 30 31 31 32 34 39 35 38 36 37 37 38 41 41 41 44 47 50 53 56 60 62 67 69 69 70 68 64 60 57 50 48 45 42 42 46 46 46
25 28 29 30 30 31 33 32 35 36 37 41 42 44 38 40 40 42 44 45 47 49 48 48 51 53 57 60 62 66 67 70 71 71 67 65 62 55 52 53 52 52 53 53
26 30 31 32 31 35 34 37 38 39 42 44 45 55 41 42 43 43 44 49 51 52 54 55 54 52 53 56 60 63 66 65 66 72 72 71 67 65 57 58 59 58 57 58
29 30 32 32 32 38 36 36 40 43 45 49 47 49 57 47 43 44 48 50 51 53 55 56 58 58 56 55 56 60 65 67 68 66 69 70 70 68 66 66 63 64 66 66
27 32 32 32 35 38 37 38 41 44 47 53 48 50 58 54 45 45 49 53 54 55 55 55 56 58 58 58 57 60 65 68 67 66 66 67 64 61 60 63 65 66 62 63
27 29 31 33 36 39 40 41 45 49 49 52 50 54 56 53 50 54 55 56 57 56 57 58 59 59 59 57 54 62 66 66 64 63 62 64 64 61 61 60 59 60 61 60
33 31 33 34 37 40 41 41 44 50 51 52 52 57 52 49 48 54 56 58 59 61 61 62 60 52 47 54 62 63 61 60 61 62 58 56 59 54 55 54 51 50 53 59
36 36 34 35 36 37 39 40 41 47 48 54 55 55 54 43 51 54 55 54 56 59 59 54 44 42 45 59 54 57 54 57 58 59 57 54 51 48 46 47 46 47 51 55
37 41 40 38 37 35 37 40 42 44 49 54 53 54 54 46 49 51 52 52 49 49 51 45 37 36 41 49 45 47 54 56 58 58 58 58 55 53 52 53 50 51 52 53
38 40 40 40 38 38 38 40 40 42 46 49 54 54 48 45 48 51 50 48 44 40 37 31 35 32 33 40 45 44 45 51 59 60 61 58 58 55 55 55 52 51 55 58
38 42 43 38 39 36 36 38 38 41 44 49 49 52 42 38 42 44 43 41 36 33 30 32 27 29 36 33 36 37 38 40 55 61 64 63 58 56 53 53 52 52 53 53
36 41 41 40 35 35 38 38 37 36 42 45 48 44 38 39 39 40 37 33 34 34 33 27 28 27 28 30 34 37 33 43 51 58 59 63 56 54 55 55 57 46 46 40
38 38 37 37 35 36 37 37 34 37 42 40 43 42 28 33 36 31 28 29 28 32 32 33 32 31 30 33 32 31 34 43 50 55 58 58 59 55 50 55 52 49 44 40
35 39 34 36 35 35 37 34 32 38 37 41 35 36 29 31 30 26 27 27 28 26 27 30 33 36 32 35 37 37 32 39 52 57 56 58 55 58 56 60 49 42 45 44
34 34 36 33 31 35 36 28 33 36 33 37 34 25 33 31 30 30 30 29 31 31 29 30 34 33 39 36 39 42 41 42 48 54 54 53 55 60 64 55 46 44 47 43
32 33 34 28 27 29 27 28 30 31 31 32 31 30 33 34 36 34 34 36 37 37 38 36 35 36 34 40 41 41 40 45 44 43 49 60 60 62 63 62 58 55 45 41
28 30 30 24 24 25 26 27 29 30 26 29 31 33 37 40 42 39 42 48 47 46 45 45 44 43 40 39 41 44 46 46 46 48 41 41 57 53 62 62 42 31 35 40
25 25 23 23 24 24 24 27 27 26 18 29 33 37 42 46 52 47 48 56 57 54 51 53 53 52 49 45 45 44 46 49 47 47 42 43 47 49 47 43 38 40 40 43
20 19 19 23 25 25 22 24 24 26 23 27 34 39 46 52 58 55 57 57 57 57 54 50 47 57 58 56 54 51 48 48 51 50 47 48 45 55 55 45 41 40 47 48
17 16 18 22 25 22 24 20 21 27 34 36 43 48 53 56 59 61 61 62 60 59 56 56 55 53 51 60 63 61 57 53 54 53 50 51 47 48 53 48 50 46 47 48
14 17 18 21 24 23 16 19 25 31 33 44 48 48 54 61 66 65 57 51 47 45 43 44 48 51 54 53 56 65 66 63 60 55 51 49 50 45 49 47 48 50 54 51
15 17 19 20 19 16 17 22 30 37 42 42 50 54 63 64 55 40 35 31 32 34 35 36 39 42 50 56 58 54 58 70 65 63 58 51 51 47 46 48 49 50 49 50
15 17 17 14 14 13 19 27 33 41 48 48 51 60 55 38 37 36 36 34 32 36 30 26 22 19 22 31 43 54 56 59 66 67 64 58 53 51 49 50 49 50 51 54
16 14 10 7 7 13 22 29 35 37 37 46 53 43 31 34 35 37 36 31 34 26 20 18 13 16 13 11 15 22 30 42 58 58 63 57 54 53 53 50 48 49 50 52
12 8 6 5 9 15 22 31 34 33 40 43 35 27 23 30 32 29 37 28 23 20 20 15 11 11 12 10 8 10 20 25 34 38 44 50 49 50 47 46 48 51 52 53
Wind_Direction
252 251 253 253 253 258 260 260 261 263 264 261 262 260 262 264 262 262 259 256 256 253 251 252 252 253 256 259 258 258 262 263 264 264 261 252 250 251 253 248 242 249 245 254
255 254 254 260 261 260 262 263 265 261 262 265 263 261 262 264 263 263 262 258 257 259 256 250 248 250 250 252 256 258 258 259 261 264 263 262 253 249 245 241 245 244 252 259
259 258 261 261 263 263 265 269 267 269 267 270 268 264 262 264 268 267 268 267 266 264 260 259 259 257 254 253 251 250 253 256 257 261 261 261 262 252 244 244 247 253 253 259
257 261 262 265 270 269 267 271 273 273 272 270 269 275 266 265 266 269 269 267 269 270 269 268 266 262 260 259 256 253 253 251 250 252 252 256 258 260 253 248 252 254 253 257
261 262 265 270 269 272 278 275 277 278 277 277 273 276 279 267 265 267 264 264 265 267 270 269 268 268 264 260 257 254 253 251 249 246 249 248 252 253 254 256 251 248 254 257
264 268 271 272 273 276 277 277 278 279 279 277 282 277 277 280 281 274 271 271 270 268 267 268 267 269 270 269 261 255 251 247 244 244 244 243 241 244 250 253 258 260 259 255
259 265 269 274 276 279 281 283 284 282 282 283 282 277 279 284 289 286 285 284 283 282 280 280 281 279 277 275 263 250 250 242 243 246 248 248 242 239 242 247 250 251 253 256
264 259 265 268 271 274 275 278 277 283 284 285 283 282 287 292 293 289 292 292 292 290 290 289 289 286 272 256 251 249 246 241 240 241 244 248 248 239 238 240 243 247 250 251
272 271 265 264 265 270 279 280 280 278 281 283 286 288 288 298 294 294 293 296 295 295 296 293 286 272 250 244 249 248 244 233 236 239 243 242 238 236 240 243 248 250 253 251
277 277 277 280 279 281 280 278 280 282 283 284 288 291 295 302 296 295 296 294 293 289 287 285 277 269 257 242 242 241 239 233 232 233 237 238 238 239 237 240 245 248 252 251
271 272 277 280 285 282 281 280 280 280 281 285 287 292 304 303 299 297 295 294 291 276 274 280 273 270 257 245 237 246 245 237 229 233 233 234 240 238 237 240 237 242 249 249
274 277 280 281 280 280 279 279 280 279 284 281 290 292 303 302 297 291 292 290 287 283 268 271 273 269 258 246 235 242 245 238 230 233 237 235 231 242 242 235 238 238 246 249
271 273 278 281 281 283 280 279 281 283 281 288 292 305 302 306 296 295 294 293 282 271 267 260 268 264 261 259 245 240 249 238 226 228 233 241 239 232 235 236 237 238 242 252
273 274 280 282 286 287 284 284 286 285 287 296 295 300 310 298 300 297 292 296 294 280 268 259 267 265 263 257 249 249 251 238 225 221 230 234 239 246 239 238 235 245 246 253
274 279 280 284 286 284 281 285 291 290 292 289 304 300 302 301 300 295 293 288 293 287 287 277 266 262 259 255 252 248 234 231 225 228 230 233 237 239 242 234 240 245 241 253
273 279 282 281 282 280 283 298 287 289 291 294 297 302 290 299 301 295 294 288 284 278 280 281 278 269 257 250 248 249 241 241 240 228 232 237 240 241 245 245 253 244 246 255
273 277 276 281 276 279 292 289 288 287 287 293 291 294 293 295 293 292 290 289 285 281 276 273 267 268 271 259 246 247 250 249 247 247 219 235 232 242 243 250 253 247 248 245
272 273 275 279 279 285 290 288 286 283 287 288 288 292 295 295 292 293 296 292 287 284 282 276 269 265 265 263 256 245 246 250 249 245 243 234 232 241 245 243 237 238 236 243
274 270 274 282 283 293 295 293 290 290 283 289 297 297 298 297 295 297 291 289 289 286 281 271 266 264 259 255 254 254 248 248 246 246 247 242 236 236 236 237 233 237 239 237
270 269 277 283 289 298 295 287 286 287 290 291 292 296 296 296 296 297 295 292 290 288 284 278 268 256 253 252 249 249 249 246 243 242 246 247 240 234 238 235 238 237 239 235
265 271 279 287 295 299 294 297 293 296 303 307 307 307 305 301 299 302 299 297 291 288 283 276 271 263 255 249 245 245 243 243 243 243 239 241 242 239 238 238 243 239 240 235
272 277 286 291 293 295 302 307 304 302 311 309 308 310 307 305 308 309 307 304 300 296 289 277 267 259 256 249 244 242 241 239 238 236 236 237 234 239 238 239 242 242 240 239
274 284 288 286 288 303 313 308 307 312 314 315 321 317 311 314 316 321 319 311 310 315 304 286 273 266 257 250 250 243 239 238 236 235 234 233 234 232 237 234 238 241 243 240
283 288 284 282 285 313 309 307 314 322 325 326 311 314 316 328 339 331 330 330 322 322 317 308 299 292 275 265 254 249 245 238 235 232 234 232 232 234 236 237 240 242 244 243
287 280 268 263 293 310 310 316 321 323 319 311 314 327 331 353 351 347 341 322 329 335 333 332 330 331 314 291 268 251 242 238 233 232 228 229 231 232 235 241 243 243 243 242
277 238 213 269 308 312 317 316 323 330 321 323 337 351 353 351 340 349 9 2 357 353 355 348 341 349 1 346 332 269 233 217 209 218 220 222 227 230 232 234 235 237 240 238
Height
5750 5753 5752 5751 5753 5754 5755 5755 5756 5757 5758 5755 5758 5758 5757 5758 5759 5759 5760 5762 5761 5764 5766 5767 5766 5767 5769 5770 5772 5774 5777 5781 5783 5787 5793 5799 5802 5803 5804 5809 5810 5808 5808 5805
5746 5746 5745 5746 5748 5748 5748 5749 5750 5751 5749 5745 5749 5747 5748 5749 5749 5749 5749 5751 5751 5751 5753 5754 5754 5754 5756 5758 5760 5763 5766 5768 5770 5774 5780 5783 5789 5792 5793 5796 5798 5800 5801 5802
5738 5738 5738 5739 5740 5740 5741 5742 5741 5741 5741 5737 5737 5735 5741 5739 5739 5738 5737 5736 5737 5737 5740 5741 5742 5744 5745 5746 5747 5747 5751 5754 5758 5761 5764 5767 5772 5777 5782 5786 5788 5790 5792 5793
5731 5729 5730 5731 5732 5730 5733 5731 5731 5732 5730 5730 5728 5718 5732 5730 5728 5727 5726 5724 5723 5724 5724 5725 5727 5729 5730 5733 5732 5734 5735 5737 5743 5745 5747 5751 5758 5762 5770 5773 5777 5776 5777 5778
5722 5722 5721 5723 5723 5720 5723 5723 5720 5718 5717 5713 5717 5716 5706 5716 5720 5717 5714 5713 5712 5710 5709 5710 5709 5709 5712 5714 5716 5717 5718 5721 5724 5728 5732 5736 5740 5746 5751 5756 5761 5763 5763 5766
5716 5713 5713 5714 5713 5712 5713 5713 5710 5708 5705 5699 5706 5703 5695 5698 5704 5703 5700 5697 5695 5695 5695 5695 5694 5693 5695 5694 5697 5699 5701 5703 5707 5711 5715 5720 5725 5730 5735 5739 5743 5746 5749 5751
5707 5707 5707 5706 5704 5703 5703 5702 5697 5694 5693 5691 5691 5686 5686 5688 5687 5681 5676 5674 5673 5673 5673 5673 5672 5672 5673 5672 5674 5676 5679 5686 5691 5696 5701 5707 5711 5715 5721 5725 5728 5732 5734 5738
5697 5701 5700 5700 5698 5696 5695 5695 5691 5682 5681 5679 5677 5671 5676 5676 5674 5665 5661 5657 5654 5652 5651 5651 5649 5649 5650 5650 5652 5656 5662 5669 5677 5683 5689 5694 5698 5701 5705 5709 5714 5717 5719 5722
5686 5687 5690 5690 5690 5689 5686 5683 5681 5675 5673 5665 5663 5663 5662 5668 5659 5652 5648 5644 5638 5633 5631 5631 5631 5631 5631 5632 5635 5640 5646 5653 5662 5669 5675 5680 5683 5688 5692 5696 5700 5703 5705 5708
5677 5674 5676 5676 5677 5678 5675 5673 5670 5667 5661 5654 5654 5651 5649 5653 5646 5639 5634 5629 5625 5621 5617 5616 5616 5616 5615 5616 5619 5624 5630 5638 5646 5653 5660 5665 5668 5670 5675 5681 5687 5691 5693 5697
5667 5666 5667 5666 5667 5664 5664 5662 5661 5658 5653 5647 5641 5642 5644 5637 5630 5626 5620 5617 5613 5611 5609 5606 5605 5604 5604 5606 5611 5615 5619 5625 5633 5637 5642 5648 5651 5656 5661 5666 5673 5678 5681 5684
5656 5653 5652 5656 5655 5656 5654 5650 5649 5645 5642 5636 5636 5630 5635 5625 5619 5612 5610 5606 5604 5601 5599 5598 5596 5595 5596 5599 5603 5605 5608 5612 5618 5624 5627 5629 5634 5644 5650 5655 5660 5665 5669 5673
5648 5645 5645 5645 5648 5646 5641 5640 5639 5636 5630 5628 5623 5625 5617 5613 5607 5602 5599 5598 5595 5592 5591 5589 5588 5587 5587 5589 5593 5595 5596 5598 5602 5609 5613 5617 5626 5628 5636 5641 5647 5652 5658 5662
5637 5638 5637 5636 5635 5633 5629 5628 5628 5624 5619 5619 5614 5610 5615 5604 5599 5596 5593 5590 5587 5584 5583 5582 5581 5580 5578 5579 5582 5584 5586 5586 5591 5593 5598 5606 5613 5620 5619 5625 5632 5639 5646 5650
5629 5625 5628 5625 5624 5622 5619 5620 5618 5613 5612 5606 5610 5602 5600 5597 5592 5589 5586 5583 5579 5577 5574 5572 5572 5571 5571 5570 5571 5574 5576 5576 5579 5583 5589 5595 5601 5606 5606 5613 5620 5627 5633 5637
5620 5620 5617 5618 5615 5611 5609 5612 5607 5604 5603 5598 5596 5597 5589 5587 5584 5582 5579 5575 5571 5569 5565 5563 5561 5562 5561 5562 5562 5562 5566 5569 5572 5574 5578 5582 5588 5594 5597 5603 5609 5615 5619 5624
5613 5611 5609 5610 5606 5605 5606 5603 5600 5596 5594 5591 5587 5586 5582 5578 5574 5573 5569 5565 5561 5559 5556 5554 5552 5550 5550 5549 5551 5551 5552 5554 5559 5563 5565 5570 5574 5581 5587 5592 5597 5604 5608 5613
5605 5602 5600 5602 5599 5600 5598 5595 5591 5587 5587 5583 5580 5575 5570 5565 5561 5562 5557 5548 5546 5544 5541 5539 5538 5537 5536 5535 5536 5539 5540 5542 5545 5551 5553 5554 5562 5569 5574 5581 5587 5590 5597 5602
5595 5593 5593 5593 5592 5593 5590 5585 5582 5580 5583 5575 5570 5566 5560 5553 5544 5549 5542 5532 5527 5525 5522 5520 5520 5519 5520 5522 5522 5523 5527 5529 5532 5537 5542 5546 5552 5557 5562 5568 5573 5579 5586 5590
5587 5587 5588 5586 5585 5584 5582 5578 5576 5572 5572 5570 5564 5560 5550 5542 5531 5529 5523 5516 5509 5503 5499 5497 5496 5495 5497 5502 5504 5507 5510 5514 5518 5522 5527 5533 5539 5545 5550 5556 5563 5568 5573 5578
5581 5581 5582 5580 5578 5579 5574 5571 5568 5567 5565 5559 5552 5545 5535 5525 5516 5506 5499 5491 5486 5480 5475 5472 5469 5469 5473 5477 5481 5486 5491 5496 5501 5506 5513 5519 5524 5530 5536 5541 5549 5555 5560 5567
5576 5576 5576 5574 5572 5571 5569 5566 5563 5560 5559 5547 5540 5533 5519 5507 5497 5487 5478 5469 5462 5455 5450 5447 5444 5445 5447 5450 5454 5461 5468 5475 5482 5490 5497 5504 5511 5516 5522 5528 5534 5540 5546 5553
5572 5573 5572 5571 5567 5566 5564 5561 5557 5552 5547 5540 5527 5518 5505 5493 5483 5473 5465 5457 5450 5442 5434 5427 5424 5424 5424 5425 5430 5437 5445 5453 5461 5471 5481 5488 5496 5503 5509 5515 5521 5526 5532 5539
5568 5568 5566 5565 5563 5563 5560 5556 5553 5545 5535 5528 5518 5509 5494 5484 5474 5465 5456 5447 5439 5432 5423 5417 5415 5413 5410 5408 5410 5417 5421 5429 5439 5452 5462 5472 5480 5487 5495 5501 5507 5512 5518 5525
5564 5563 5562 5562 5562 5561 5556 5552 5548 5545 5536 5523 5511 5500 5487 5478 5471 5460 5449 5440 5433 5426 5420 5415 5412 5408 5403 5401 5402 5403 5404 5408 5419 5431 5445 5456 5466 5474 5480 5486 5492 5497 5503 5510
5558 5558 5560 5560 5560 5558 5555 5550 5543 5536 5526 5515 5503 5496 5486 5476 5468 5458 5447 5436 5429 5424 5420 5415 5412 5409 5405 5402 5398 5395 5395 5400 5408 5422 5431 5443 5452 5460 5468 5473 5478 5483 5488 5493